Temperature
18 21 20 20 22 23 23 24 25 26 26 25 26 27 27 28 27 27 27 27 27 25 23 23 24 24 22 22 21 20 20 19 18 17 17 18 19 18 17 17 17 16 16 16
20 19 20 20 19 20 21 21 23 24 25 25 26 26 27 28 28 28 27 28 27 24 22 21 24 24 23 22 21 20 20 19 17 17 18 18 18 18 17 17 16 17 17 16
21 23 23 22 20 20 21 21 21 21 23 25 25 25 27 28 28 27 26 26 26 24 23 21 22 22 23 22 22 21 20 18 17 17 17 18 17 17 17 16 16 17 17 16
22 23 23 23 22 21 20 21 22 22 22 23 24 23 26 27 28 28 27 25 25 23 22 22 21 21 21 21 20 19 18 17 17 17 17 17 17 17 17 16 16 16 16 16
22 23 23 22 23 21 20 19 18 19 19 21 23 23 26 27 26 27 27 26 25 22 22 21 21 21 20 20 19 18 17 17 17 17 17 16 16 16 16 16 16 15 15 15
23 23 23 23 24 24 23 21 20 18 18 19 23 23 25 28 27 26 26 25 24 22 22 21 21 21 20 20 20 19 18 17 17 17 17 16 16 16 16 15 15 15 15 15
24 24 23 22 23 23 22 21 20 19 20 20 23 24 25 27 26 25 25 25 23 22 22 21 21 20 20 20 20 19 19 18 17 17 16 16 15 15 15 15 15 14 15 15
23 22 23 22 23 23 22 22 22 21 20 22 22 24 24 25 24 24 24 23 22 22 22 22 21 20 19 19 19 18 18 17 17 16 16 16 15 15 15 15 14 14 14 14
23 23 24 23 23 23 21 24 23 24 23 22 23 24 25 24 24 24 23 23 23 23 22 22 21 20 19 19 19 19 18 17 18 16 16 16 15 15 15 14 14 14 14 14
22 20 23 23 23 23 22 23 23 22 23 22 23 23 23 24 24 24 25 24 23 23 22 22 21 20 20 19 19 19 18 17 17 17 16 15 16 15 16 15 14 14 13 14
21 20 21 22 22 22 23 23 23 23 23 22 21 23 24 24 24 24 24 24 23 23 22 22 22 21 20 20 20 20 19 18 18 17 16 16 16 16 16 15 14 14 13 13
19 19 21 21 20 20 20 21 21 19 20 20 19 21 25 24 24 24 24 23 23 22 22 21 21 21 20 20 20 20 19 18 18 18 17 17 16 16 16 15 14 14 14 13
18 17 18 19 18 20 19 20 19 18 18 19 19 22 24 25 24 24 23 23 23 23 22 21 21 21 20 20 19 20 20 19 18 19 18 16 16 16 16 15 14 15 14 13
17 16 17 16 16 18 18 19 18 15 16 18 20 21 23 23 23 24 23 23 23 22 22 21 21 20 20 20 19 20 20 20 19 18 18 17 16 16 16 15 15 14 14 14
18 17 17 18 18 18 19 19 19 17 17 18 20 20 21 22 22 22 22 22 22 21 22 21 21 20 20 19 19 20 20 20 19 18 17 16 16 15 15 15 15 14 13 14
17 17 17 18 19 19 18 19 19 19 18 18 18 19 20 19 19 20 20 21 21 21 21 21 20 20 19 19 19 19 19 20 19 18 17 16 16 16 15 15 15 14 14 13
18 16 16 17 18 17 16 15 15 17 17 17 17 17 18 19 20 20 20 21 21 21 20 19 19 18 18 18 18 19 18 17 17 16 16 15 16 16 16 16 16 15 15 14
15 15 16 17 16 15 15 14 14 16 16 16 17 17 17 18 19 18 18 19 20 19 18 18 17 17 17 17 18 19 18 18 17 16 16 15 15 14 15 16 16 15 14 14
14 14 15 16 15 16 14 10 10 13 15 16 16 16 16 18 21 20 16 16 16 16 16 16 16 17 17 17 17 17 17 16 16 16 15 15 14 14 14 15 16 15 14 15
16 14 14 14 12 12 10 9 10 15 14 15 15 16 15 17 20 19 15 15 14 15 15 15 15 16 16 16 16 16 16 15 14 14 14 14 15 14 13 13 13 15 15 15
15 14 12 11 10 11 8 8 12 12 11 13 14 15 15 16 16 16 15 14 14 15 15 15 15 15 15 15 14 14 13 13 13 13 12 12 13 13 13 13 13 14 14 13
13 12 10 10 10 8 8 7 8 8 8 12 13 14 14 15 15 15 15 14 14 15 15 14 14 15 14 14 14 13 12 12 12 11 11 11 12 12 12 12 12 12 12 12
11 11 11 11 11 10 8 7 7 7 7 11 12 13 14 14 15 15 15 14 15 15 14 14 14 13 13 13 13 13 12 12 11 11 11 10 10 11 11 11 10 10 11 11
12 12 11 10 11 10 9 8 7 7 8 10 12 13 14 14 15 15 15 15 15 15 14 14 13 13 13 13 13 12 12 12 11 11 11 10 10 10 10 9 10 10 10 11
10 10 10 12 11 9 10 8 7 7 9 10 11 12 13 14 15 15 15 15 15 15 15 14 14 13 13 13 13 13 13 12 12 11 11 11 11 10 10 10 10 10 10 10
9 9 9 9 9 7 8 8 7 7 9 9 10 11 13 14 14 15 15 15 15 14 15 14 13 13 13 13 13 13 13 12 12 12 11 10 10 10 11 10 10 11 11 11
Wind_Speed
5 4 5 6 8 9 6 9 10 7 5 6 10 11 10 8 6 9 12 14 11 8 6 6 5 5 7 7 8 8 8 7 7 7 8 7 6 5 8 8 12 12 12 9
1 4 8 7 5 8 7 9 12 10 5 6 11 13 11 11 10 10 12 13 13 8 9 8 6 4 5 5 5 7 9 9 9 9 8 6 6 6 9 10 10 11 10 7
11 6 6 9 9 9 10 10 10 9 13 13 10 15 12 9 8 10 11 10 11 10 11 10 7 5 4 5 6 7 9 11 11 9 8 6 6 5 7 9 9 11 14 11
9 10 11 13 11 7 10 7 8 10 9 7 7 10 12 11 12 13 11 9 9 9 11 10 8 6 5 5 6 7 7 9 10 10 9 9 6 7 7 7 8 10 15 15
3 3 6 11 13 8 10 5 3 6 7 11 15 11 12 7 11 10 9 8 8 10 12 11 9 7 7 7 6 6 7 7 8 9 8 8 7 6 5 4 5 8 10 13
7 6 7 9 10 7 6 6 3 2 2 10 13 10 9 4 3 4 5 5 8 12 13 11 9 7 7 7 6 6 6 7 7 7 7 7 7 5 5 4 4 4 6 9
8 4 3 3 4 6 9 6 2 4 5 6 2 5 8 5 6 10 11 6 5 11 13 12 10 8 7 7 7 7 6 6 7 6 6 6 6 6 6 5 5 5 5 5
6 2 2 0 5 6 11 14 10 5 5 5 4 5 2 3 7 7 5 1 6 10 11 10 9 8 8 8 8 7 7 7 7 6 6 6 7 5 5 5 5 5 5 5
5 4 4 4 5 5 5 8 9 11 8 6 7 7 9 3 1 3 5 4 4 6 8 9 9 9 9 10 10 9 9 8 7 6 5 6 5 5 5 5 5 5 5 4
5 9 4 4 5 4 4 1 5 7 7 9 6 5 5 1 2 2 2 4 3 1 4 6 8 9 10 11 11 11 10 9 8 7 6 5 5 5 5 5 5 5 4 5
6 6 6 5 3 6 5 6 5 6 4 6 5 1 1 2 3 2 1 4 6 6 7 6 7 9 11 11 11 12 12 11 10 9 7 6 5 5 5 5 5 6 5 6
4 5 9 6 5 3 4 7 7 7 7 4 4 6 3 3 2 2 4 4 7 8 9 8 7 8 11 12 12 13 13 13 11 9 8 7 6 6 6 6 6 7 7 6
5 5 7 3 3 1 2 5 7 8 7 7 7 5 0 5 6 6 5 10 14 13 11 8 8 9 10 12 12 13 14 12 11 10 9 8 8 7 6 6 6 7 8 8
6 5 5 4 7 9 12 11 7 10 8 10 12 14 15 18 18 18 18 17 14 14 11 8 7 9 10 12 13 13 12 11 10 10 10 9 8 8 8 7 8 8 9 8
6 7 11 11 11 14 17 19 12 14 15 14 14 17 19 20 21 22 21 19 15 15 12 9 9 8 7 9 12 12 11 11 11 10 10 9 8 8 9 9 9 10 9 9
5 8 12 15 11 13 17 15 11 7 8 9 14 17 20 22 21 21 19 16 13 12 9 7 7 5 2 6 9 10 11 11 11 11 10 9 8 8 10 11 12 11 11 11
5 8 11 12 11 14 5 11 14 12 14 12 14 19 22 21 17 12 10 10 9 7 6 5 5 7 5 5 6 7 6 4 3 9 9 8 9 10 11 12 13 13 12 11
8 10 7 9 4 2 6 13 9 3 14 19 21 21 22 22 11 10 8 7 6 4 3 6 9 10 9 8 7 5 5 7 6 5 4 6 8 10 11 12 13 14 13 12
5 6 4 3 4 4 6 12 15 13 8 22 25 25 26 25 6 14 15 9 7 8 9 10 10 11 11 11 10 9 9 9 7 4 1 2 5 8 10 11 13 13 13 12
6 6 5 5 4 2 11 25 27 15 2 24 27 27 27 25 15 16 16 10 10 10 10 9 9 10 11 10 10 9 9 9 8 7 6 5 3 2 6 9 10 10 11 11
12 7 5 6 4 2 14 26 22 4 10 24 25 23 23 18 16 15 9 6 7 7 7 7 8 9 9 8 9 9 9 9 8 7 6 6 6 5 3 2 3 4 6 6
9 7 6 5 4 4 13 15 10 10 19 24 24 23 22 20 18 12 5 3 4 5 6 5 7 8 8 7 7 9 9 7 6 5 6 6 6 5 3 2 2 3 5 6
6 7 5 5 5 6 4 6 12 14 19 23 24 23 22 20 17 12 4 1 2 4 4 5 6 6 6 6 5 6 6 6 5 5 5 4 4 4 3 3 5 6 5 5
9 6 4 5 5 10 12 8 13 16 18 23 23 21 20 19 17 12 5 3 3 3 3 4 4 3 4 4 4 4 3 3 5 5 5 4 4 4 5 3 3 5 4 3
4 5 7 8 11 16 11 17 18 19 22 24 21 20 19 17 16 11 6 4 4 4 5 5 3 1 1 2 3 3 2 2 4 4 4 5 5 5 5 4 3 3 4 5
3 5 6 7 10 9 15 16 14 17 22 23 23 21 17 15 15 12 6 4 5 6 6 6 5 4 3 2 3 2 1 1 2 2 4 3 3 4 5 4 3 8 8 8
Wind_Direction
32 348 313 323 306 293 296 292 282 287 332 318 290 291 285 271 260 264 245 228 214 205 186 190 192 210 213 212 215 202 184 183 168 172 179 185 201 196 225 210 211 208 206 212
153 265 259 259 293 290 290 293 292 296 297 312 298 289 282 268 265 267 261 246 217 192 188 183 174 176 192 185 189 187 176 171 173 183 192 192 179 200 216 225 212 200 185 183
259 252 217 223 221 245 260 250 252 270 304 293 295 280 260 259 258 257 254 251 221 196 194 185 177 165 167 175 177 184 177 181 185 181 170 165 162 195 211 212 206 196 190 174
279 285 272 248 234 243 274 279 270 278 298 299 317 297 285 283 274 260 247 230 207 192 192 182 174 162 164 163 172 181 176 180 182 178 180 195 200 217 229 213 198 199 200 192
278 299 279 259 252 209 233 199 241 300 316 295 279 277 278 271 274 261 248 245 221 198 190 179 169 160 151 148 158 165 166 176 180 188 200 221 229 229 234 237 210 208 206 207
258 249 256 270 290 255 211 192 180 210 243 269 252 250 272 260 289 313 297 293 224 194 181 170 157 161 153 144 144 152 164 167 175 192 203 223 226 219 216 207 205 206 221 222
286 226 216 267 258 214 221 219 231 224 200 244 222 241 262 321 327 315 309 302 197 181 174 171 172 176 169 164 159 161 162 157 169 183 192 208 212 216 219 222 217 207 214 238
301 287 116 263 294 244 221 243 251 243 230 222 181 241 296 342 310 320 338 102 152 169 178 185 191 188 187 182 177 173 165 159 165 182 193 194 194 211 238 237 217 231 225 221
299 279 317 324 301 252 198 226 257 274 257 252 244 252 296 343 16 25 53 91 136 175 199 210 212 206 198 195 189 183 177 171 173 185 195 203 205 216 228 232 216 209 217 220
308 298 305 317 272 220 288 289 247 232 260 262 248 241 244 55 360 305 69 62 52 293 249 238 226 221 212 204 196 189 184 179 184 191 197 208 223 217 229 228 200 206 202 196
305 282 281 285 317 332 302 272 288 314 300 280 272 237 274 335 356 342 83 41 25 11 349 312 257 229 219 210 201 196 191 186 190 192 189 195 216 227 220 221 203 199 193 188
320 291 285 303 18 308 281 319 320 282 264 255 267 261 223 259 276 142 101 32 353 337 323 310 273 239 220 213 209 203 202 193 191 191 187 197 207 217 222 214 205 194 194 199
326 288 292 248 152 46 338 13 356 331 300 257 249 256 54 285 258 239 269 316 318 312 313 304 278 264 247 229 220 212 209 200 186 184 189 196 204 213 222 221 205 196 197 203
341 305 315 306 309 309 305 303 339 317 283 278 274 291 302 300 297 293 295 298 297 293 299 301 288 268 248 227 217 214 210 199 188 186 194 202 208 210 216 213 210 208 205 209
354 322 316 299 286 289 293 293 273 241 258 278 305 310 305 305 301 291 283 283 286 283 289 294 294 292 263 223 211 205 204 195 194 193 201 204 211 211 214 206 206 210 213 215
312 301 301 296 307 311 310 331 339 263 258 300 319 315 324 314 299 285 279 278 284 282 288 304 316 324 262 202 193 190 200 202 198 202 207 201 205 208 217 214 209 212 214 225
302 307 309 301 327 321 320 40 15 51 45 6 344 337 331 328 325 314 277 276 291 301 327 343 26 47 80 127 166 188 193 143 228 229 205 200 207 210 215 219 218 216 215 217
286 296 281 282 327 293 91 38 345 24 31 10 359 354 348 339 345 24 353 314 310 345 43 87 89 85 81 76 72 67 98 139 165 235 215 210 219 220 215 218 221 217 210 205
247 308 320 298 273 228 94 13 337 312 21 14 358 355 355 345 2 39 19 19 41 69 81 84 85 84 77 70 68 68 65 72 79 74 56 231 222 221 216 217 222 220 214 208
317 281 294 305 319 311 6 344 327 298 319 2 355 353 354 354 6 3 6 32 58 68 75 80 81 78 72 64 61 62 58 53 50 45 46 47 35 282 246 234 227 221 218 218
331 337 344 346 319 352 1 346 333 359 324 334 343 346 349 350 341 332 351 28 47 59 64 68 76 76 73 70 69 66 57 46 35 31 38 45 40 26 2 305 261 218 218 209
348 349 6 350 344 335 355 354 352 314 307 317 332 336 341 342 340 341 348 19 39 58 70 78 85 85 77 71 72 71 61 46 36 31 33 37 38 26 25 62 105 146 147 140
5 0 328 327 325 346 335 321 313 319 309 316 324 325 332 338 339 332 318 27 56 69 88 96 96 92 86 71 58 64 58 36 28 32 32 31 47 52 56 96 121 120 117 125
331 344 332 323 334 343 318 334 322 314 308 314 316 318 327 333 334 325 281 211 158 125 120 125 125 119 91 69 46 41 43 24 25 34 30 30 42 31 72 87 111 111 101 121
329 318 326 319 347 337 340 334 326 321 320 316 316 316 318 327 332 330 288 226 176 160 160 162 177 184 100 49 21 11 6 358 23 40 43 45 46 57 77 91 54 50 64 33
360 327 324 311 324 320 307 318 327 321 317 315 308 303 309 321 330 330 298 230 195 180 171 179 198 219 241 289 335 352 184 265 358 39 52 42 42 75 88 98 81 44 41 50
Height
1512 1516 1516 1516 1510 1506 1503 1500 1497 1492 1489 1491 1489 1487 1484 1483 1485 1485 1484 1484 1486 1489 1491 1492 1493 1496 1499 1500 1502 1504 1504 1506 1508 1510 1512 1515 1516 1519 1523 1524 1525 1527 1530 1533
1514 1516 1513 1512 1512 1511 1508 1507 1502 1494 1491 1492 1488 1485 1481 1480 1480 1480 1479 1479 1481 1486 1488 1490 1491 1493 1495 1497 1498 1500 1501 1502 1505 1507 1509 1512 1515 1517 1518 1519 1521 1522 1524 1526
1509 1503 1503 1506 1508 1511 1509 1509 1507 1507 1497 1487 1489 1485 1476 1473 1475 1476 1475 1476 1478 1482 1486 1489 1490 1492 1493 1495 1496 1497 1498 1500 1502 1505 1507 1510 1511 1514 1515 1515 1516 1518 1520 1521
1505 1501 1499 1499 1501 1506 1510 1503 1503 1503 1502 1496 1495 1500 1477 1472 1471 1470 1471 1474 1476 1480 1483 1487 1489 1491 1492 1494 1495 1496 1497 1500 1502 1503 1505 1507 1510 1511 1512 1512 1511 1513 1516 1518
1501 1499 1499 1500 1498 1501 1503 1505 1510 1509 1508 1505 1495 1496 1479 1469 1471 1467 1468 1470 1473 1477 1481 1485 1488 1490 1492 1493 1494 1495 1496 1499 1500 1502 1503 1505 1507 1509 1509 1509 1508 1509 1510 1511
1497 1498 1499 1496 1492 1490 1494 1502 1504 1511 1514 1514 1488 1491 1479 1464 1466 1466 1467 1469 1470 1473 1478 1483 1486 1488 1490 1492 1493 1494 1495 1497 1499 1500 1500 1501 1504 1506 1505 1505 1506 1506 1508 1508
1493 1491 1493 1494 1494 1494 1498 1505 1513 1518 1513 1509 1484 1485 1475 1463 1465 1467 1466 1466 1468 1472 1477 1481 1484 1486 1489 1490 1492 1493 1494 1496 1497 1498 1498 1500 1502 1503 1504 1504 1503 1503 1503 1504
1498 1502 1490 1492 1492 1490 1494 1498 1503 1509 1510 1492 1488 1483 1472 1466 1466 1466 1465 1465 1469 1473 1477 1480 1484 1486 1487 1489 1491 1492 1493 1494 1495 1497 1498 1498 1499 1499 1501 1501 1501 1500 1500 1500
1495 1493 1487 1489 1489 1488 1497 1488 1485 1485 1486 1492 1483 1473 1469 1466 1465 1466 1467 1468 1470 1474 1478 1480 1483 1485 1487 1489 1490 1491 1492 1493 1494 1495 1496 1497 1498 1497 1498 1498 1499 1498 1497 1497
1500 1504 1491 1490 1488 1487 1487 1487 1492 1487 1486 1492 1482 1482 1477 1467 1468 1468 1468 1470 1472 1475 1477 1479 1481 1483 1485 1487 1488 1488 1490 1491 1492 1493 1494 1495 1496 1496 1496 1497 1498 1497 1497 1496
1506 1505 1495 1489 1489 1489 1486 1484 1483 1481 1481 1489 1494 1483 1468 1467 1467 1468 1470 1471 1473 1475 1477 1477 1478 1480 1483 1484 1484 1485 1486 1488 1489 1490 1491 1492 1494 1494 1494 1495 1496 1496 1497 1496
1510 1509 1499 1492 1495 1495 1494 1492 1492 1502 1496 1495 1499 1489 1464 1467 1468 1469 1469 1470 1472 1474 1474 1474 1475 1476 1477 1477 1480 1481 1484 1485 1485 1486 1488 1490 1491 1492 1492 1493 1493 1494 1495 1495
1513 1513 1511 1500 1504 1497 1496 1495 1498 1502 1501 1497 1496 1481 1464 1464 1466 1468 1468 1469 1469 1469 1470 1471 1471 1471 1472 1474 1475 1478 1481 1483 1482 1483 1485 1487 1488 1489 1489 1490 1492 1492 1493 1494
1515 1513 1516 1520 1516 1507 1502 1496 1501 1512 1509 1494 1485 1476 1468 1467 1466 1465 1464 1465 1465 1466 1466 1467 1468 1467 1467 1468 1470 1473 1476 1479 1480 1480 1482 1485 1486 1486 1487 1488 1489 1490 1491 1493
1513 1512 1509 1504 1503 1500 1497 1491 1490 1500 1496 1492 1481 1479 1474 1470 1468 1465 1462 1462 1462 1463 1463 1463 1463 1462 1461 1463 1465 1468 1472 1475 1476 1476 1478 1481 1483 1484 1485 1486 1487 1488 1489 1490
1514 1511 1506 1500 1494 1494 1493 1487 1482 1484 1490 1489 1486 1481 1475 1473 1466 1462 1461 1461 1460 1460 1460 1460 1459 1458 1457 1458 1461 1464 1467 1470 1471 1472 1474 1476 1478 1480 1481 1483 1484 1485 1486 1488
1513 1509 1508 1501 1495 1496 1499 1503 1502 1493 1494 1495 1492 1486 1475 1466 1460 1456 1457 1458 1458 1458 1458 1458 1457 1456 1456 1459 1461 1463 1465 1469 1474 1474 1472 1472 1474 1475 1477 1478 1480 1482 1482 1483
1516 1509 1503 1499 1502 1506 1506 1506 1506 1500 1498 1495 1490 1484 1476 1468 1460 1459 1458 1457 1456 1456 1457 1456 1456 1456 1458 1460 1461 1461 1462 1464 1467 1472 1468 1469 1470 1472 1473 1473 1475 1477 1478 1479
1518 1513 1505 1502 1499 1492 1503 1515 1516 1505 1499 1498 1492 1484 1477 1466 1456 1458 1459 1457 1457 1457 1458 1458 1459 1460 1461 1461 1461 1462 1462 1462 1463 1464 1464 1465 1467 1467 1468 1468 1470 1471 1473 1474
1515 1514 1512 1508 1515 1511 1522 1516 1508 1498 1500 1499 1494 1487 1479 1471 1462 1464 1465 1463 1461 1460 1461 1462 1462 1462 1462 1462 1462 1463 1462 1462 1462 1462 1462 1462 1463 1463 1464 1464 1465 1466 1468 1470
1514 1512 1516 1522 1521 1520 1527 1519 1507 1509 1518 1507 1501 1495 1488 1482 1480 1474 1469 1468 1466 1465 1464 1465 1464 1464 1464 1465 1465 1465 1463 1462 1462 1462 1462 1461 1461 1460 1460 1460 1460 1461 1463 1465
1524 1524 1528 1526 1528 1536 1529 1528 1529 1528 1520 1511 1504 1498 1492 1485 1479 1475 1473 1471 1470 1468 1467 1467 1468 1467 1467 1468 1468 1467 1465 1464 1462 1461 1461 1461 1460 1459 1459 1458 1458 1459 1461 1462
1536 1535 1534 1530 1531 1531 1531 1531 1528 1525 1520 1512 1506 1499 1494 1487 1481 1477 1475 1474 1472 1470 1470 1470 1470 1471 1470 1470 1470 1469 1467 1465 1464 1463 1462 1461 1460 1459 1459 1459 1460 1461 1462 1464
1534 1533 1533 1532 1529 1527 1527 1526 1524 1521 1517 1511 1505 1499 1495 1489 1483 1478 1476 1474 1473 1471 1472 1471 1472 1474 1473 1471 1470 1470 1468 1467 1466 1465 1464 1462 1461 1461 1459 1459 1461 1463 1464 1465
1539 1536 1533 1526 1527 1526 1522 1523 1519 1512 1510 1507 1501 1497 1494 1489 1483 1478 1476 1474 1473 1472 1471 1471 1474 1476 1475 1473 1471 1470 1469 1468 1468 1467 1465 1464 1463 1462 1460 1460 1462 1464 1464 1464
1541 1540 1537 1533 1531 1529 1524 1520 1516 1511 1508 1502 1496 1491 1489 1486 1481 1477 1475 1474 1473 1472 1472 1473 1474 1475 1475 1474 1473 1471 1470 1469 1469 1468 1467 1466 1466 1465 1463 1463 1463 1464 1464 1464